Location: *
(43.2048°N, 0.1612°E)
Time: 19:47:49
(UTC+00:00)

Cosmos 2360 Rocket - Pass Details

Date: 30 September 2023
Orbit: 833 x 845 km, 71.0° (Epoch: 05 December)

Event Time Altitude Azimuth Distance (km) Brightness Sun altitude
Rises 03:08:53 0° 334° (NNW) 3,412 5.4 -30.1°
Reaches altitude 10° 03:11:20 10° 334° (NNW) 2,474 4.6 -29.7°
Enters shadow 03:12:18 15° 334° (NNW) 2,109 4.2 -29.5°
Exits shadow 03:21:55 14° 159° (SSE) 2,169 4.3 -28.0°
Drops below altitude 10° 03:22:41 10° 159° (SSE) 2,458 4.6 -27.9°
Sets 03:25:07 0° 159° (SSE) 3,389 5.3 -27.5°
